FW3963 Weather Reports


time (UTC)temp
F
wind
direction
speed
knots
gust
knots
rain 1hr
in
rain 24hr
in
rain mn
in
humidity
%
barometer
mb
20260505065520 54 268 0.0 0.9 0.00 0.00 0.00 100 1015.6
20260505065015 54 268 0.0 3.5 0.00 0.00 0.00 100 1015.6
20260505064509 54 265 0.9 3.5 0.00 0.00 0.00 100 1015.5
20260505064001 54 300 0.9 2.6 0.00 0.00 0.00 100 1015.7
20260505063459 54 284 0.0 1.7 0.00 0.00 0.00 100 1015.7
20260505063020 54 232 0.9 3.5 0.00 0.00 0.00 100 1015.7
20260505063010 54 234 0.0 3.5 0.00 0.00 0.00 100 1015.7
20260505061938 54 271 0.0 1.7 0.00 0.00 0.00 100 1015.5
20260505061434 54 219 0.0 1.7 0.00 0.00 0.00 100 1015.6
20260505060935 54 254 0.0 1.7 0.00 0.00 0.00 100 1015.7
20260505060422 54 288 0.0 1.7 0.00 0.00 0.00 100 1015.7
20260505060202 54 303 0.0 2.6 0.00 0.00 0.00 100 1015.7
20260505055644 54 303 0.0 2.6 0.00 0.00 0.00 100 1015.6
20260505054929 54 355 0.0 0.0 0.00 0.00 0.00 100 1015.7
20260505054908 54 333 0.0 0.0 0.00 0.00 0.00 100 1015.7
20260505053850 54 355 0.0 0.9 0.00 0.00 0.00 100 1015.7
20260505053653 54 283 0.0 0.0 0.00 0.00 0.00 100 1015.8
20260505053402 54 355 0.0 0.9 0.00 0.00 0.00 100 1015.6
20260505052613 54 283 0.0 0.0 0.00 0.00 0.00 100 1015.6
20260505051828 54 283 0.0 0.9 0.00 0.00 0.00 100 1015.8
20260505051325 54 283 0.0 3.5 0.00 0.00 0.00 100 1015.8
20260505051051 54 283 0.0 3.5 0.00 0.00 0.00 100 1015.8
20260505050318 54 274 0.9 3.5 0.00 0.00 0.00 100 1015.8
20260505041250 55 257 0.0 1.7 0.00 0.00 0.00 100 1015.5
20260505040751 55 257 0.0 0.9 0.00 0.00 0.00 100 1015.4
20260505040533 55 257 0.0 2.6 0.00 0.00 0.00 100 1015.3
20260505040039 55 271 0.0 2.6 0.00 0.00 0.00 100 1015.3
20260505035527 55 276 0.0 0.9 0.00 0.00 0.00 100 1015.1
20260505034743 55 276 0.0 0.9 0.00 0.00 0.00 100 1015.1
20260505034242 55 276 0.0 2.6 0.00 0.00 0.00 100 1015.0
20260505033739 55 271 0.0 2.6 0.00 0.00 0.00 100 1014.9
20260505033237 55 293 0.0 0.0 0.00 0.00 0.00 100 1014.8
20260505032735 55 293 0.0 0.0 0.00 0.00 0.00 100 1014.7
20260505032234 55 293 0.0 1.7 0.00 0.00 0.00 100 1014.8
20260505031731 55 293 0.0 1.7 0.00 0.00 0.00 100 1014.8
20260505031231 56 296 0.0 1.7 0.00 0.00 0.00 100 1014.6
20260505030725 56 282 0.0 0.9 0.00 0.00 0.00 100 1014.4
20260505030219 56 282 0.0 1.7 0.00 0.00 0.00 100 1014.5
20260505025715 56 282 0.0 3.5 0.00 0.00 0.00 100 1014.5
20260505025454 56 282 0.0 3.5 0.00 0.00 0.00 100 1014.6
20260505024712 56 292 0.9 4.3 0.00 0.00 0.00 100 1014.6
20260505024209 56 292 1.7 4.3 0.00 0.00 0.00 100 1014.6
20260505023709 56 308 1.7 3.5 0.00 0.00 0.00 100 1014.6
20260505023447 56 241 1.7 3.5 0.00 0.00 0.00 100 1014.6
20260505022706 56 259 0.9 3.5 0.00 0.00 0.00 100 1014.6
20260505022205 56 250 0.9 2.6 0.00 0.00 0.00 100 1014.7
20260505021703 56 295 0.9 2.6 0.00 0.00 0.00 100 1014.8
20260505021204 56 319 0.9 4.3 0.00 0.00 0.00 100 1014.7
20260505020703 57 14 1.7 4.3 0.00 0.00 0.00 100 1014.7
20260505020204 57 321 0.9 4.3 0.00 0.00 0.00 100 1014.7
20260505015703 57 267 1.7 6.1 0.00 0.00 0.00 100 1014.6
20260505015205 57 267 1.7 6.1 0.00 0.00 0.00 100 1014.7
20260505014659 58 5 1.7 6.1 0.00 0.00 0.00 100 1014.7
20260505014159 58 250 1.7 4.3 0.00 0.00 0.00 100 1014.6
20260505013700 58 269 1.7 4.3 0.00 0.00 0.00 100 1014.6
20260505013159 58 288 1.7 5.2 0.00 0.00 0.00 100 1014.6
20260505012659 58 276 1.7 5.2 0.00 0.00 0.00 100 1014.5
20260505012200 58 275 0.9 3.5 0.00 0.00 0.00 100 1014.7
20260505011659 58 294 0.0 2.6 0.00 0.00 0.00 100 1014.8
20260505011159 58 287 0.9 3.5 0.00 0.00 0.00 100 1014.8
20260505010659 58 308 1.7 3.5 0.00 0.00 0.00 100 1014.9
20260505010229 59 286 0.9 5.2 0.00 0.00 0.00 100 1014.8
20260505010220 58 351 0.9 3.5 0.00 0.00 0.00 100 1014.9
20260505005158 59 288 0.9 5.2 0.00 0.00 0.00 100 1014.8
20260505004658 58 299 0.9 4.3 0.00 0.00 0.00 100 1014.8
20260505004441 58 315 0.9 2.6 0.00 0.00 0.00 100 1014.8
20260505003702 58 330 0.9 3.5 0.00 0.00 0.00 100 1014.9
20260505003200 58 261 2.6 7.0 0.00 0.00 0.00 100 1014.8
20260505002700 58 246 2.6 7.0 0.00 0.00 0.00 100 1015.0
20260505002201 59 325 1.7 6.1 0.00 0.00 0.00 100 1014.9
20260505001700 59 271 1.7 6.1 0.00 0.00 0.00 100 1015.0
20260505001159 59 283 1.7 5.2 0.00 0.00 0.00 100 1015.0
20260505000945 59 274 1.7 7.0 0.00 0.00 0.00 100 1015.0
20260505000157 60 336 1.7 7.0 0.00 0.00 0.00 100 1015.1
20260504235658 60 219 0.9 4.3 0.00 0.00 0.00 100 1015.1
20260504235157 60 276 1.7 6.1 0.00 0.00 0.00 100 1015.1
20260504234653 60 167 2.6 6.1 0.00 0.00 0.00 100 1015.1
20260504234556 61 283 1.7 6.1 0.00 0.00 0.00 100 1015.0
20260504234551 60 292 1.7 6.1 0.00 0.00 0.00 100 1015.1
20260504233709 61 262 1.7 6.1 0.00 0.00 0.00 100 1015.0
20260504232651 61 317 1.7 7.0 0.00 0.00 0.00 100 1015.0
20260504232429 61 267 0.9 7.0 0.00 0.00 0.00 100 1015.0
20260504231652 61 288 1.7 6.1 0.00 0.00 0.00 100 1015.0
20260504231149 60 264 2.6 6.1 0.00 0.00 0.00 100 1015.0
20260504230649 61 215 1.7 6.1 0.00 0.00 0.00 100 1015.0
20260504230146 61 245 2.6 7.8 0.00 0.00 0.00 100 1015.0
20260504225645 61 240 2.6 7.8 0.00 0.00 0.00 100 1014.9
20260504225426 61 309 2.6 7.8 0.00 0.00 0.00 100 1014.9
20260504224645 61 263 2.6 7.8 0.00 0.00 0.00 100 1014.9
20260504224421 61 279 2.6 7.8 0.00 0.00 0.00 100 1015.0
20260504223642 62 297 2.6 7.8 0.00 0.00 0.00 100 1015.0
20260504223422 62 270 1.7 7.8 0.00 0.00 0.00 100 1015.0
20260504222924 62 37 1.7 6.1 0.00 0.00 0.00 100 1015.0
20260504222140 62 190 2.6 6.1 0.00 0.00 0.00 100 1015.0
20260504221641 61 334 2.6 7.8 0.00 0.00 0.00 100 1015.1
20260504221142 62 305 2.6 7.8 0.00 0.00 0.00 100 1015.1
20260504220640 62 294 2.6 7.8 0.00 0.00 0.00 100 1015.2
20260504220420 62 291 2.6 7.8 0.00 0.00 0.00 100 1015.2
20260504215645 62 302 1.7 7.0 0.00 0.00 0.00 100 1015.1
20260504215527 62 321 1.7 7.0 0.00 0.00 0.00 100 1015.3
20260504215519 62 266 2.6 7.0 0.00 0.00 0.00 100 1015.2
20260504214136 62 259 0.9 5.2 0.00 0.00 0.00 100 1015.2
20260504213943 61 258 0.9 5.2 0.00 0.00 0.00 100 1015.4
20260504213125 61 240 0.9 5.2 0.00 0.00 0.00 100 1015.3
20260504212947 60 269 1.7 6.1 0.00 0.00 0.00 100 1015.3
20260504212937 61 242 1.7 3.5 0.00 0.00 0.00 100 1015.3
20260504211607 60 329 2.6 7.0 0.00 0.00 0.00 100 1015.5
20260504211333 60 33 2.6 8.7 0.00 0.00 0.00 100 1015.5
20260504211109 60 33 2.6 8.7 0.00 0.00 0.00 100 1015.5
20260504210555 60 241 2.6 8.7 0.00 0.00 0.00 100 1015.5
20260504210050 60 331 1.7 7.0 0.00 0.00 0.00 100 1015.5
20260504205542 60 261 1.7 6.1 0.00 0.00 0.00 100 1015.6
20260504205037 60 293 1.7 6.1 0.00 0.00 0.00 100 1015.5
20260504204531 60 241 1.7 5.2 0.00 0.00 0.00 100 1015.6
20260504204248 60 333 1.7 5.2 0.00 0.00 0.00 100 1015.6
20260504204041 60 333 1.7 5.2 0.00 0.00 0.00 100 1015.6
20260504203518 60 262 1.7 5.2 0.00 0.00 0.00 100 1015.7
20260504203020 60 338 1.7 6.1 0.00 0.00 0.00 100 1015.6
20260504203004 60 330 2.6 6.1 0.00 0.00 0.00 100 1015.6
20260504202510 60 330 2.6 6.1 0.00 0.00 0.00 100 1015.6
20260504202001 60 5 2.6 6.1 0.00 0.00 0.00 100 1015.8
20260504201455 60 235 1.7 6.1 0.00 0.00 0.00 100 1015.8
20260504201236 60 247 1.7 7.0 0.00 0.00 0.00 100 1015.8
20260504200727 60 324 1.7 7.0 0.00 0.00 0.00 100 1015.6
20260504195936 60 232 1.7 6.1 0.00 0.00 0.00 100 1015.7
20260504195430 60 269 1.7 6.1 0.00 0.00 0.00 100 1015.7
20260504195212 60 279 1.7 5.2 0.00 0.00 0.00 100 1015.6
20260504194418 61 284 0.9 4.3 0.00 0.00 0.00 100 1015.7
20260504194205 61 261 0.9 3.5 0.00 0.00 0.00 100 1015.6
20260504193406 60 108 0.9 3.5 0.00 0.00 0.00 100 1015.5
20260504192900 60 188 1.7 3.5 0.00 0.00 0.00 100 1015.6
20260504192405 60 323 1.7 3.5 0.00 0.00 0.00 100 1015.7
20260504191919 60 241 2.6 7.0 0.00 0.00 0.00 100 1015.6
20260504191905 60 327 1.7 6.1 0.00 0.00 0.00 100 1015.6
20260504191124 60 257 1.7 7.0 0.00 0.00 0.00 100 1015.6
20260504190331 60 279 0.9 6.1 0.00 0.00 0.00 100 1015.6
20260504185826 61 319 0.9 2.6 0.00 0.00 0.00 100 1015.6
20260504185319 61 264 0.9 1.7 0.00 0.00 0.00 100 1015.6
20260504184812 60 311 1.7 3.5 0.00 0.00 0.00 100 1015.6
20260504184307 60 312 0.9 3.5 0.00 0.00 0.00 100 1015.7
20260504183800 60 297 0.0 1.7 0.00 0.00 0.00 100 1015.6
20260504183254 60 89 0.9 3.5 0.00 0.00 0.00 100 1015.6
20260504182751 60 88 1.7 6.1 0.00 0.00 0.00 100 1015.5
20260504182250 60 173 0.9 6.1 0.00 0.00 0.00 100 1015.4
20260504181750 60 246 0.0 2.6 0.00 0.00 0.00 100 1015.4
20260504181248 60 212 0.0 1.7 0.00 0.00 0.00 100 1015.4
20260504180751 60 212 0.0 1.7 0.00 0.00 0.00 100 1015.4
20260504180246 60 189 0.0 1.7 0.00 0.00 0.00 100 1015.4
20260504180025 60 189 0.9 1.7 0.00 0.00 0.00 100 1015.3
20260504175240 59 87 0.9 1.7 0.00 0.00 0.00 100 1015.2
20260504175034 60 88 0.9 2.6 0.00 0.00 0.00 100 1015.4
20260504174517 60 57 0.0 2.6 0.00 0.00 0.00 100 1015.4
20260504174018 60 223 0.0 1.7 0.00 0.00 0.00 100 1015.4
20260504173243 60 226 0.0 1.7 0.00 0.00 0.00 100 1015.3
20260504172736 60 250 0.0 1.7 0.00 0.00 0.00 100 1015.2
20260504172514 60 311 0.0 1.7 0.00 0.00 0.00 100 1015.2
20260504171732 59 178 0.0 1.7 0.00 0.00 0.00 100 1015.2
20260504171230 59 96 0.0 0.0 0.00 0.00 0.00 100 1015.3
20260504170728 59 94 0.0 1.7 0.00 0.01 0.00 100 1015.2
20260504170228 59 0 0.9 3.5 0.00 0.01 0.00 100 1015.2
20260504160222 57 355 0.9 3.5 0.00 0.01 0.00 100 1015.0
20260504150721 55 308 0.9 7.0 0.00 0.01 0.00 100 1014.9
20260504150216 55 238 0.9 3.5 0.00 0.01 0.00 100 1014.9
20260504141145 54 298 0.0 2.6 0.00 0.01 0.00 100 1014.4
20260504140645 54 344 0.9 2.6 0.00 0.01 0.00 100 1014.4
20260504140144 54 258 0.9 4.3 0.00 0.01 0.00 100 1014.4
20260504130639 54 282 0.0 2.6 0.00 0.01 0.00 100 1013.8
20260504130140 54 323 0.0 2.6 0.00 0.01 0.00 100 1013.8
20260504110439 54 326 1.7 6.1 0.00 0.01 0.00 100 1013.9
20260504100327 54 305 0.9 3.5 0.00 0.01 0.00 100 1013.6
20260504081741 55 302 0.9 4.3 0.00 0.01 0.00 100 1013.6
20260504081246 55 340 0.9 4.3 0.00 0.01 0.00 100 1013.7
20260504081025 55 261 0.0 2.6 0.00 0.01 0.00 100 1013.5
20260504080246 55 203 0.0 2.6 0.00 0.01 0.00 100 1013.5
20260504070227 55 302 0.0 0.0 0.00 0.01 0.00 100 1013.4